{"data":{"norad_id":58446,"epoch":"2026-09-20T01:31:39.038592Z","epoch_age_seconds":184449,"freshness":"STALE","line1":"1 58446U 23183K   26263.06364628 -.00000041  00000+0  80357-5 0  9991","line2":"2 58446  43.0041  23.6841 0001188 269.4380  90.6335 15.27575056156488","mean_motion":15.27575056,"eccentricity":0.0001188,"inclination_deg":43.0041,"raan_deg":23.6841,"arg_perigee_deg":269.438,"mean_anomaly_deg":90.6335,"bstar":8.0357e-6,"rev_number":15648,"period_min":94.267053808189,"perigee_km":482.24878952723,"apogee_km":483.87901086112,"semimajor_km":6861.2009001942,"source":"CELESTRAK","updated_at":"2026-09-21T09:00:33.877056Z"}}